Weather Service Report


286 
ASUS46 KLOX 231914
RWRCA 

SOUTHERN CALIFORNIA WEATHER ROUNDUP
NATIONAL WEATHER SERVICE OXNARD CALIFORNIA
1100 AM PST SUN FEB 23 2020

NOTE: "FAIR" INDICATES FEW OR NO CLOUDS BELOW 12,000 FEET WITH NO 
SIGNIFICANT WEATHER AND/OR OBSTRUCTIONS TO VISIBILITY.

  -  STATIONS PRECEEDED BY AN ASTERISK (*) ARE NOT NWS OR FAA 
     STATIONS AND ARE NOT SUBJECT TO NWS AND FAA QUALITY CONTROL.

CAZ041-042-087-232000-
LA AND ORANGE COUNTY COASTAL AREAS

  
CITY           SKY/WX    TMP DP  RH WIND       PRES   REMARKS
L.A. DOWNTOWN  CLOUDY    66  47  50 VRB5      30.29S                  
L.A. AIRPORT   PTSUNNY   62  49  62 W10       30.30S                  
LONG BEACH     PTSUNNY   64  46  52 S8        30.30S                  

CITY           SKY/WX    TMP DP  RH WIND       PRES   REMARKS
AVALON           N/A     59 N/A N/A MISG        N/A                   
FULLERTON      PTSUNNY   64  50  60 W3        30.29S                  
HAWTHORNE      PTSUNNY   61  48  62 SW7       30.31R                  
*LEO CARRILLO    N/A     62  51  66 W7          N/A                   
*LOS ALAMITOS  MOSUNNY   62  51  67 SW6       30.30S                  
*REDONDO BEACH   N/A     64  51  62 SW3       30.30R                  
SANTA ANA      PTSUNNY   65  50  58 S5        30.30S                  
STA MONICA APT PTSUNNY   60  48  64 SW8       30.30S                  
TORRANCE       PTSUNNY   61  52  72 SW8       30.31R                  
*UCLA            N/A     61  46  59 S1        30.27S                  

$$

CAZ547-548-048-232000-
LA COUNTY VALLEYS AND INLAND EMPIRE

  
CITY           SKY/WX    TMP DP  RH WIND       PRES   REMARKS
BURBANK        MOSUNNY   60  45  57 VRB5      30.28S                  
VAN NUYS       MOSUNNY   61  48  62 E5        30.28S                  

CITY           SKY/WX    TMP DP  RH WIND       PRES   REMARKS
CORONA AIRPORT CLOUDY    61  50  67 SW6       30.30S                  
*CHATSWORTH      N/A     61  48  62 E2        30.33S                  
CHINO          PTSUNNY   63  48  58 W7        30.30S                  
*CLAREMONT       N/A     54  51  90 CALM        N/A                   
MARCH AFB      CLOUDY    57  46  66 CALM      30.28S                  
ONTARIO        CLOUDY    57  48  72 NW5       30.29S                  
*PASADENA        N/A     59  50  72 E2          N/A                   
POMONA         CLOUDY    57  48  72 CALM      30.30S                  
RIVERSIDE      PTSUNNY   59  45  59 W5        30.29S                  
SAN BERNARDINO CLOUDY    57  46  67 CALM      30.29S HAZE             
*SAN RAFAEL HI   N/A     55  48  76 E5          N/A                   
*SAUGUS          N/A     59  47  65 W5          N/A                   
*WHITEMAN AP   MOSUNNY   59  45  58 S5        30.32R                  
*WHITTIER HILL   N/A     59  50  73 CALM        N/A                   
*WOODLAND HILL   N/A     63  46  55 N1          N/A                   

$$

CAZ054-055-232000-
LA AND SAN BERNARDINO COUNTY MOUNTAINS

  
CITY           SKY/WX    TMP DP  RH WIND       PRES   REMARKS
*ACTON           N/A     60  42  51 SW7         N/A                   
*BIG BEAR AIRP CLEAR     45  19  36 N5        30.30S                  
*BIG PINES       N/A     51  25  36 CALM        N/A                   
*CHILAO          N/A     55  40  56 SW6         N/A                   
SANDBERG       NOT AVBL                                               
*WARM SPRINGS    N/A     54  47  78 SW3         N/A                   

$$

CAZ028-029-059-060-099-232000-
ANTELOPE VALLEY AND SURROUNDING AREAS

  
CITY           SKY/WX    TMP DP  RH WIND       PRES   REMARKS
LANCASTER      SUNNY     65  35  33 W5        30.25S                  
PALMDALE       SUNNY     62  37  39 W6        30.25F                  
*POPPY PARK      N/A     64  38  38 W15         N/A                   

CITY           SKY/WX    TMP DP  RH WIND       PRES   REMARKS
29 PALMS       SUNNY     66  34  30 NW16      30.26S                  
BARSTOW/DAGGET SUNNY     65  39  38 W18G25    30.21F                  
BISHOP         SUNNY     59  26  28 NW6       30.23S                  
CHINA LAKE     SUNNY     61  45  55 NE6       30.22S                  
EDWARDS AFB    MOSUNNY   62  40  45 SW8       30.22S                  
MOJAVE         SUNNY     63  37  39 W9        30.24S                  
NEEDLES        SUNNY     62  44  51 CALM      30.18S                  

$$

CAZ039-040-232000-
VENTURA AND SANTA BARBARA COUNTY COAST

  
CITY           SKY/WX    TMP DP  RH WIND       PRES   REMARKS
CAMARILLO      MOSUNNY   65  50  58 NW3       30.29S                  
NWS OXNARD       N/A     64  48  56 SE2       30.27S                  
OXNARD AIRPORT MOSUNNY   60  50  69 SW8       30.30R                  
SBA APT/GOLETA MOSUNNY   61  45  55 S8        30.29R                  
*SANTA BARBARA   N/A     63  47  55 W3        30.37S                  
*VENTURA         N/A     63  50  63 SE2         N/A                   

$$

CAZ044-045-232000-
VENTURA COUNTY VALLEYS

  
CITY           SKY/WX    TMP DP  RH WIND       PRES   REMARKS
*SIMI VALLEY     N/A     61  49  63 NE2       30.25S                  
*N 1000 OAKS     N/A     60  49  65 SW3       30.29S                  
*TO CIVIC ARTS   N/A     63  45  51 SE5         N/A                   
*WESTLAKE VILL   N/A     61  49  63 CALM      30.28S                  
*OJAI            N/A     62  52  69 SW1       30.25S                  
*FILLMORE        N/A     63  52  67 E1        30.32F                  

$$

CAZ053-232000-
VENTURA COUNTY MOUNTAINS

  
CITY           SKY/WX    TMP DP  RH WIND       PRES   REMARKS
*LOCKWOOD VLY    N/A     54  25  32 MISG        N/A                   
*FRAZIER MTN     N/A     37  24  58 NW8       30.46R WCI  31          

$$

CAZ034-035-036-232000-
CENTRAL COAST AND SANTA YNEZ VALLEY

  
CITY           SKY/WX    TMP DP  RH WIND       PRES   REMARKS
SAN LUIS OBISP SUNNY     59  44  57 VRB5      30.34S                  
SANTA MARIA    MOSUNNY   60  45  57 VRB5      30.35S                  

CITY           SKY/WX    TMP DP  RH WIND       PRES   REMARKS
*CAL POLY SLO    N/A     61  48  63 N7          N/A                   
*LOMPOC        CLOUDY    58  46  64 NW12      30.36R                  
*PISMO BEACH     N/A     58  43  56 W6        30.34S                  
*SANTA YNEZ    PTSUNNY   54  43  66 N5        30.34S                  

$$

CAZ037-038-051-232000-
SAN LUIS OBISPO COUNTY INTERIOR AND CUYAMA VALLEY

  
CITY           SKY/WX    TMP DP  RH WIND       PRES   REMARKS
*CUYAMA          N/A     56  44  64 CALM      30.27S                  
PASO ROBLES    MOSUNNY   56  43  61 N12       30.35S                  

$$

CAZ032-033-061-232000-
SOUTHERN DESERTS

  
CITY           SKY/WX    TMP DP  RH WIND       PRES   REMARKS
BLYTHE         SUNNY     68  40  35 VRB6      30.18S                  
IMPERIAL       NOT AVBL                                               
PALM SPRINGS   SUNNY     70  42  36 CALM      30.19F                  
THERMAL        SUNNY     71  42  35 N6        30.17S                  

$$

ELSEWHERE ACROSS THE WESTERN UNITED STATES AND MEXICO

  
CITY           SKY/WX    TMP DP  RH WIND       PRES   REMARKS
DEATH VALLEY,    N/A     67  48  50 CALM        N/A                   
DENVER, CO     CLOUDY    36  30  79 W17       30.01S WCI  26          
GRAND CANYON,  PTSUNNY   32  30  92 NW10      30.14R WCI  24          
HONOLULU, HI   MOSUNNY   75  64  69 W5        30.12                   
KAHULUI, MAUI  MOSUNNY   75  63  64 CALM      30.13R                  
LAKE TAHOE, CA SUNNY     53  17  24 VRB3      30.30R                  
LAS VEGAS, NV  MOSUNNY   60  42  51 E3        30.16S                  
MAMMOTH LAKES, FAIR      50  14  23 W3        30.30S                  
MEXICO CITY, M SUNNY     77  37  24 NE3       30.36F                  
PHOENIX, AZ    PTSUNNY   57  41  55 NW5       30.19R                  
PORTLAND, OR   MOSUNNY   50  35  56 W29G40    30.14R                  
RENO, NV       MOSUNNY   55  20  25 SW6       30.25F                  
SALT LAKE CITY MOSUNNY   45  24  43 CALM      30.13R                  
SAN DIEGO, CA  PTSUNNY   64  50  60 W9        30.32S                  
SAN FRANCISCO, PTSUNNY   56  45  66 W20G26    30.37R                  
SAN JOSE, CA   PTSUNNY   55  43  63 N3        30.39R                  
SEATTLE, WA    PTSUNNY   46  38  73 SW22G32   29.95R                  
TIJUANA, MEX   PTSUNNY   61  50  67 W12       30.33S                  

$$
  
STATION/POSITION TIME  TEMP    WIND        PRES    VSBY  WAVE
                       AIR SEA DIR/SP/G                  HT/PER
                 (UTC) (F)     (DEG/KT/KT) (MB)    (MI)  (FT/S)
WEST SANTA BARBA 1900   55 58  320/ 19/ 25 1027.6
EAST SANTA BARBA 1900   57 58  290/  8/ 10 1026.7
SANTA MONICA BAY 1900   58 60  260/  4/  6 1026.7
SAN CLEMENTE BAS 1900   58     300/  8/ 14 1026.6

Return to Home page


Western Regional Climate Center, wrcc@dri.edu